Temperature
19 20 20 21 21 21 20 19 18 19 20 20 20 20 21 21 21 21 21 21 21 21 20 20 19 19 19 18 18 18 17 17 17 17 16 16 16 15 15 14 14 14 14 13
20 21 20 21 21 21 21 20 20 20 20 20 21 21 21 21 21 20 20 21 21 21 20 20 19 19 19 18 18 17 17 17 17 16 16 16 16 15 15 14 14 14 14 13
18 19 20 20 21 21 21 20 20 20 20 20 19 20 21 21 21 21 21 21 21 21 20 20 20 19 19 18 18 17 17 17 16 16 16 16 15 15 15 14 14 14 13 13
17 19 20 20 20 21 20 20 20 20 20 20 20 21 22 22 22 21 21 21 21 21 20 20 20 19 19 18 18 17 17 17 16 16 16 15 15 15 14 14 14 14 13 13
16 18 19 20 21 21 21 20 20 19 19 20 21 20 20 21 22 22 22 21 21 21 20 20 19 19 18 18 17 17 17 17 16 16 16 15 15 15 14 14 14 13 13 13
16 18 18 19 21 22 20 19 20 20 19 19 19 17 18 21 21 21 21 21 21 20 20 19 19 19 18 18 17 17 17 17 16 16 16 15 15 14 14 14 13 13 13 13
16 17 17 19 20 21 19 19 20 20 21 20 19 19 20 21 20 20 20 20 20 20 19 19 19 18 18 18 17 17 17 17 16 16 16 15 15 14 14 13 13 13 12 12
15 16 17 19 20 19 19 20 21 21 21 21 21 20 20 20 20 20 20 19 19 19 19 19 18 18 18 18 18 17 17 16 16 16 15 15 14 14 14 13 13 13 12 12
16 17 18 20 20 21 21 21 21 21 21 21 20 20 20 19 19 19 19 19 19 18 18 18 18 17 17 17 17 17 16 16 16 15 15 14 14 14 13 13 13 12 12 12
15 16 18 19 20 21 21 21 21 21 21 20 20 19 19 19 18 18 18 18 18 18 18 17 17 17 17 17 16 16 16 16 15 15 15 14 14 13 13 13 12 12 12 12
15 16 18 19 20 20 20 20 20 20 20 20 19 19 18 18 18 18 17 17 17 17 17 17 16 16 16 16 16 15 15 15 15 14 14 14 13 13 13 13 12 12 12 11
15 17 16 18 19 20 20 19 19 19 19 19 19 18 18 17 17 17 17 17 16 16 16 16 16 15 15 15 15 15 15 14 14 14 13 13 13 13 12 12 12 11 11 11
19 19 19 19 19 19 19 19 19 19 18 18 18 17 17 17 16 16 16 16 16 15 15 15 15 15 14 14 14 14 14 14 13 13 13 13 12 12 12 12 11 11 11 11
19 19 18 18 18 18 18 18 18 18 17 17 17 17 16 16 16 15 15 15 15 15 14 14 14 14 14 13 13 13 13 13 13 13 12 12 12 12 11 11 11 11 11 10
18 18 18 18 18 18 18 17 17 17 16 16 16 16 16 15 15 15 14 14 14 14 14 13 13 13 13 13 13 12 12 12 12 12 12 11 11 11 11 10 10 10 10 10
17 17 17 17 17 17 17 16 16 16 16 15 15 15 15 15 14 14 14 13 13 13 13 12 12 12 12 12 12 12 12 11 11 11 11 11 10 10 10 10 9 9 9 9
16 16 16 16 16 16 16 16 15 15 15 15 14 14 14 14 13 13 13 12 12 12 12 12 12 11 11 11 11 11 11 11 10 10 10 10 10 9 9 9 9 9 9 8
16 16 16 16 15 15 15 15 15 14 14 14 14 13 13 13 12 12 12 12 12 11 11 11 11 11 10 10 10 10 10 10 10 10 9 9 9 9 8 8 8 8 8 8
15 15 15 15 15 15 14 14 14 14 13 13 13 12 12 12 12 12 11 11 11 11 11 10 10 10 10 10 9 9 9 9 9 9 8 8 8 8 8 7 7 7 7 7
14 14 14 14 14 14 14 13 13 13 13 12 12 12 12 11 11 11 11 10 10 10 10 10 9 9 9 9 9 9 8 8 8 8 8 7 7 7 7 7 6 6 6 6
13 13 13 13 13 13 13 13 13 12 12 12 11 11 11 10 10 10 10 10 9 9 9 9 9 9 8 8 8 8 8 7 7 7 7 7 6 6 6 6 6 5 5 5
13 13 13 12 12 12 12 12 12 11 11 11 11 10 10 10 9 9 9 9 9 9 8 8 8 8 8 7 7 7 7 7 6 6 6 6 6 5 5 5 5 5 4 4
12 12 12 12 11 11 11 11 11 11 10 10 10 10 9 9 9 9 8 8 8 8 8 7 7 7 7 7 7 6 6 6 6 5 5 5 5 5 4 4 4 4 4 3
11 11 11 11 11 10 10 10 10 10 10 10 9 9 9 8 8 8 8 7 7 7 7 7 7 6 6 6 6 5 5 5 5 5 4 4 4 4 4 3 3 3 3 3
10 10 10 10 10 10 9 9 9 9 9 9 8 8 8 8 7 7 7 7 7 6 6 6 6 6 5 5 5 5 4 4 4 4 3 3 3 3 3 3 3 2 2 2
9 9 9 9 9 9 9 9 8 8 8 8 7 7 7 7 7 6 6 6 6 6 6 5 5 5 5 4 4 4 4 3 3 3 3 3 3 2 2 2 2 2 2 1
8 8 8 8 8 8 8 8 8 8 7 7 7 6 6 6 6 6 5 5 5 5 5 5 4 4 4 4 3 3 3 3 3 3 2 2 2 2 1 1 1 1 1 1
Wind_Speed
6 6 4 5 6 6 6 8 8 7 7 8 7 8 8 8 8 8 8 9 11 11 10 10 10 10 10 10 9 9 9 9 9 8 7 6 6 5 4 4 4 3 3 2
3 4 3 4 7 8 8 6 6 5 7 8 5 3 5 7 9 9 10 11 11 11 11 11 11 11 10 10 10 9 10 9 8 8 7 7 6 5 5 4 3 3 3 2
3 5 2 4 7 7 5 5 6 7 8 4 2 4 7 9 10 11 11 11 11 11 12 12 12 11 12 11 10 10 10 9 9 8 8 7 7 6 5 4 4 3 2 2
1 2 2 7 4 4 4 4 4 5 4 5 6 5 4 6 10 10 10 10 11 10 10 9 9 9 10 9 10 10 10 9 9 9 8 7 7 6 5 4 4 4 4 3
3 2 5 7 4 2 4 2 4 4 3 3 3 4 3 2 5 8 9 8 9 10 9 8 8 9 9 9 9 10 10 10 10 10 9 8 8 7 5 5 4 4 4 4
4 3 5 7 7 2 5 2 5 3 4 4 6 3 4 4 2 3 3 4 5 5 5 7 7 8 10 10 10 11 11 10 9 10 10 10 9 7 5 5 5 5 4 4
4 4 7 8 6 2 4 6 4 3 5 6 6 6 4 2 2 2 2 2 4 5 6 6 6 8 9 9 11 11 9 8 8 9 10 9 8 6 5 5 4 4 4 4
5 4 7 6 2 5 7 4 3 4 5 6 4 3 3 3 3 3 2 2 4 5 4 3 5 7 7 8 9 7 7 8 8 8 8 7 7 6 6 6 5 5 4 5
7 7 6 3 4 4 5 5 4 5 5 7 6 4 3 3 3 2 3 3 3 5 4 2 4 6 7 6 5 7 7 7 7 7 6 7 8 8 5 6 5 5 5 6
2 4 3 2 0 1 3 4 4 5 6 6 6 5 4 3 2 2 2 3 3 5 4 2 2 3 4 4 5 7 7 6 5 5 5 5 5 6 6 7 7 6 7 7
2 3 1 3 1 1 2 4 5 5 5 6 7 5 4 3 2 2 2 2 4 4 4 2 1 1 1 3 5 6 5 5 4 5 5 5 5 6 7 8 8 9 8 7
6 8 6 5 4 3 4 4 5 6 4 4 6 6 5 3 2 3 3 3 4 3 3 2 2 1 1 2 4 5 4 4 4 4 4 4 4 4 6 7 9 11 11 9
6 5 6 5 4 3 5 5 5 5 6 5 4 5 5 3 3 3 4 4 4 3 3 2 2 1 0 1 3 4 4 4 3 3 4 4 4 4 4 5 6 7 9 11
3 4 3 3 3 3 4 5 5 5 4 5 4 4 5 4 3 4 3 3 3 3 3 2 2 1 0 1 3 3 2 2 2 3 4 4 4 5 5 5 5 5 6 9
2 4 5 3 3 3 4 5 6 4 4 3 4 5 5 5 4 3 2 3 4 4 3 2 2 0 1 2 2 2 2 1 1 1 2 3 3 3 4 5 5 5 5 6
3 3 4 5 4 4 5 6 5 4 3 3 3 4 4 5 4 3 3 4 4 3 2 2 1 1 1 2 2 1 0 1 0 1 1 1 2 3 3 4 5 5 5 6
6 4 5 5 5 4 4 5 6 5 4 4 4 4 4 5 4 3 2 2 3 3 2 1 1 1 1 1 2 1 0 1 1 1 1 2 2 3 4 4 4 5 5 6
7 7 7 7 6 5 4 4 5 5 4 4 4 5 5 5 5 3 2 2 3 2 2 1 0 1 1 1 1 0 0 1 1 2 2 2 3 3 3 4 5 6 5 5
5 5 4 5 6 6 5 5 4 4 4 5 5 5 4 4 3 3 3 3 3 1 2 1 1 2 1 1 1 0 0 1 2 2 2 3 3 3 3 4 5 5 5 5
4 5 5 4 4 5 4 4 4 4 4 5 6 5 4 3 3 3 4 2 2 3 2 1 1 1 0 1 1 0 0 1 2 2 2 2 3 3 3 4 4 4 4 4
5 5 6 5 4 4 4 4 5 5 4 5 6 5 4 3 3 3 3 1 2 1 1 1 1 0 1 1 1 0 1 1 2 2 3 3 3 3 3 4 4 4 4 4
5 5 5 5 5 4 3 4 5 5 5 4 4 4 4 3 2 2 1 2 2 1 1 0 0 0 1 2 1 1 1 2 2 2 3 3 3 4 4 4 4 4 4 5
4 5 5 4 5 4 4 3 4 4 4 4 4 4 4 3 2 3 1 2 1 0 1 1 0 2 3 2 1 1 1 2 2 2 3 3 3 3 3 4 4 4 5 5
4 4 4 4 5 6 4 2 2 3 3 3 3 3 3 2 1 0 2 1 0 0 0 0 2 3 3 2 1 1 2 2 2 3 3 3 3 3 3 4 4 4 5 6
3 4 4 5 5 4 3 3 4 4 4 3 3 2 2 2 2 1 0 0 0 1 1 2 3 4 2 1 1 1 2 2 3 3 3 3 3 4 4 4 5 5 5 6
4 3 3 3 3 3 3 3 3 2 3 3 2 1 1 1 2 1 1 1 1 2 1 1 1 2 1 1 2 2 2 3 4 3 3 4 4 4 5 5 6 5 5 6
3 3 3 2 2 2 3 3 3 3 3 3 2 1 1 1 1 1 2 1 1 1 1 1 1 1 2 2 2 3 3 3 3 4 4 4 4 4 5 6 5 5 5 5
Wind_Direction
230 238 224 231 234 221 204 195 199 230 228 244 235 218 206 194 179 174 180 183 185 188 188 187 187 188 185 185 181 174 170 176 184 181 172 167 166 162 154 149 147 146 134 122
294 267 247 267 256 234 230 224 217 228 252 252 233 197 186 184 175 180 189 192 192 191 190 191 191 190 185 186 183 173 175 183 180 172 169 171 171 165 158 158 151 142 144 146
270 296 1 279 245 221 224 230 198 216 240 237 194 201 199 190 185 192 196 195 193 195 197 197 196 192 191 189 180 175 180 182 179 174 173 178 174 166 170 174 167 165 178 171
188 39 243 251 258 189 189 253 229 211 222 184 184 195 195 184 186 197 199 197 197 196 197 197 192 190 187 178 177 179 182 185 184 177 179 179 174 179 183 178 177 185 198 199
140 191 277 294 291 212 168 280 273 211 206 193 170 83 5 283 193 197 199 198 199 195 191 186 185 183 173 176 179 182 188 190 190 183 181 180 185 191 190 182 191 201 204 203
139 167 230 253 278 277 110 297 293 206 190 182 121 121 253 264 195 184 188 190 189 176 169 178 187 174 173 182 184 194 198 195 191 186 184 189 194 193 189 190 203 204 214 217
170 204 252 255 275 77 136 231 255 181 156 149 163 191 210 169 137 153 159 161 154 152 168 185 177 167 179 185 198 204 195 187 187 189 191 193 191 189 188 192 194 207 223 236
160 186 248 268 139 164 203 200 179 154 147 146 150 132 118 118 122 110 101 109 135 147 161 165 160 164 179 198 205 188 178 181 188 191 196 193 186 191 188 186 195 214 227 249
184 207 240 254 197 206 166 162 174 163 163 146 132 125 117 110 107 100 110 123 135 143 142 143 157 163 181 204 182 166 168 182 190 192 196 188 188 193 193 194 203 219 224 240
198 259 269 287 89 108 152 158 162 154 148 141 139 138 126 120 114 100 101 124 127 126 129 147 174 172 189 189 166 160 173 186 186 187 195 197 197 197 199 205 212 220 226 237
209 253 336 343 296 199 122 113 112 119 130 142 136 131 136 135 134 126 110 113 122 133 146 166 162 151 170 167 157 164 174 185 188 190 192 202 209 212 211 217 213 215 223 225
213 215 184 218 239 205 150 146 141 129 119 122 134 137 133 134 136 122 112 106 105 107 117 130 126 111 128 161 161 164 176 190 194 195 200 206 215 244 248 239 241 234 233 231
202 197 185 194 205 191 168 165 149 137 139 133 129 133 129 126 125 115 107 106 120 128 125 120 112 97 51 141 148 161 178 193 197 200 204 210 214 222 254 277 268 255 248 245
178 143 152 185 196 173 145 141 126 113 118 127 126 119 119 113 110 112 124 139 132 118 110 113 111 94 302 136 139 152 163 184 192 209 214 218 224 229 232 239 259 269 264 254
203 170 176 173 145 132 123 115 110 110 109 107 118 123 127 126 132 141 141 125 108 98 97 101 99 351 342 118 131 141 153 187 201 212 224 232 238 241 243 243 247 258 272 276
181 136 136 137 148 144 131 131 135 147 143 134 129 135 140 140 133 123 116 118 116 129 141 123 132 293 49 105 115 122 189 266 177 194 241 269 262 253 252 251 253 256 260 264
163 176 171 168 170 165 162 163 164 164 153 148 152 141 126 119 109 102 106 131 140 147 148 149 214 318 73 109 123 147 215 306 332 304 262 259 261 259 258 255 257 260 262 265
180 185 182 176 173 170 168 163 158 153 154 155 137 124 126 135 145 153 148 121 102 67 25 302 218 80 76 101 148 215 237 255 263 260 267 267 267 264 267 266 266 268 273 276
155 156 157 162 163 159 162 163 160 155 146 136 133 137 140 144 149 144 125 113 113 117 292 294 73 88 66 320 360 17 316 300 294 285 280 285 288 280 272 269 272 274 276 278
141 138 133 133 135 142 150 153 144 137 138 134 128 125 122 127 127 122 116 126 204 226 229 119 97 81 358 332 21 48 306 289 289 292 296 290 287 288 285 281 280 281 284 287
130 126 122 121 120 120 134 138 132 132 132 132 135 142 146 142 130 127 123 137 286 275 120 84 93 251 269 352 23 18 315 305 299 294 292 289 290 289 288 288 289 287 286 289
125 123 120 120 116 106 103 114 122 125 124 126 131 134 130 125 116 106 135 200 234 206 108 115 220 301 356 27 47 356 330 318 309 304 300 299 297 295 294 294 294 294 293 293
126 124 120 121 124 120 98 99 116 126 132 138 142 143 145 155 156 149 210 273 251 151 107 187 297 352 0 33 28 341 328 318 310 306 303 302 299 297 297 296 292 292 292 292
121 119 123 121 113 107 103 96 98 107 115 121 130 136 135 127 91 240 202 211 170 113 119 310 358 12 20 37 20 344 322 312 307 304 304 301 300 300 299 295 292 291 288 289
119 117 117 117 117 127 135 120 100 91 90 88 85 87 106 140 157 187 166 147 76 71 39 0 15 19 29 20 344 315 305 302 306 310 302 299 294 295 297 295 294 292 290 289
116 120 125 134 145 148 142 127 120 118 116 111 93 84 89 101 119 118 105 81 71 66 53 357 353 5 358 319 303 296 293 302 311 313 303 298 293 293 296 297 295 294 294 292
109 108 104 92 85 119 132 135 139 147 153 149 146 151 126 107 97 90 83 75 69 52 9 339 326 316 304 299 298 295 293 292 293 295 296 295 292 289 289 294 296 295 297 297
Height
1523 1520 1520 1519 1518 1518 1523 1527 1533 1527 1523 1516 1511 1510 1510 1511 1513 1516 1518 1520 1522 1525 1528 1531 1534 1537 1540 1542 1545 1547 1549 1550 1552 1553 1554 1555 1555 1556 1556 1556 1556 1556 1555 1555
1522 1517 1518 1519 1515 1515 1516 1517 1519 1518 1517 1507 1506 1508 1509 1510 1512 1514 1516 1518 1520 1523 1525 1528 1531 1534 1536 1539 1541 1544 1545 1547 1549 1551 1552 1552 1553 1554 1554 1554 1554 1554 1553 1553
1531 1522 1520 1525 1514 1512 1513 1511 1512 1517 1511 1505 1506 1506 1507 1508 1510 1512 1513 1516 1518 1520 1522 1525 1527 1530 1533 1536 1539 1541 1542 1544 1546 1548 1549 1550 1551 1551 1551 1551 1552 1552 1551 1551
1531 1528 1535 1521 1504 1505 1508 1507 1505 1505 1503 1503 1504 1504 1505 1506 1508 1509 1511 1513 1515 1518 1520 1522 1525 1527 1530 1533 1535 1537 1539 1541 1543 1544 1546 1547 1548 1548 1549 1549 1549 1549 1549 1549
1534 1534 1529 1514 1504 1503 1506 1509 1504 1503 1502 1503 1503 1504 1506 1506 1507 1507 1509 1511 1513 1515 1517 1520 1522 1525 1527 1530 1532 1534 1535 1537 1539 1541 1542 1543 1544 1545 1546 1546 1546 1546 1546 1546
1531 1532 1534 1516 1501 1499 1503 1512 1503 1501 1501 1502 1503 1510 1508 1506 1506 1507 1508 1510 1511 1513 1515 1518 1520 1522 1524 1526 1528 1530 1532 1534 1536 1537 1539 1540 1541 1542 1542 1543 1543 1543 1543 1543
1529 1531 1523 1505 1499 1500 1516 1514 1502 1500 1500 1501 1502 1504 1504 1504 1505 1506 1507 1508 1510 1512 1513 1515 1517 1519 1521 1523 1525 1527 1529 1531 1533 1534 1535 1536 1537 1538 1539 1539 1540 1540 1540 1540
1527 1530 1523 1499 1499 1503 1504 1500 1500 1499 1499 1500 1501 1502 1503 1503 1504 1505 1505 1507 1508 1510 1512 1514 1515 1517 1518 1520 1522 1524 1526 1527 1529 1530 1532 1532 1533 1534 1535 1535 1536 1536 1536 1535
1512 1512 1501 1497 1496 1496 1496 1497 1498 1498 1499 1500 1500 1501 1502 1502 1503 1503 1504 1505 1507 1508 1510 1512 1513 1515 1516 1517 1519 1521 1522 1524 1525 1527 1528 1528 1529 1530 1530 1531 1531 1531 1531 1531
1505 1501 1498 1496 1495 1496 1496 1496 1497 1497 1498 1499 1500 1501 1501 1502 1502 1503 1504 1504 1506 1507 1508 1510 1511 1513 1514 1515 1517 1518 1519 1520 1521 1522 1523 1524 1525 1525 1526 1526 1526 1526 1526 1526
1502 1499 1497 1496 1496 1496 1496 1496 1496 1497 1498 1498 1499 1500 1500 1501 1501 1502 1502 1503 1504 1506 1507 1508 1509 1510 1511 1513 1514 1515 1516 1517 1518 1518 1519 1519 1520 1521 1521 1521 1522 1521 1521 1521
1498 1494 1494 1495 1495 1495 1495 1495 1495 1496 1497 1497 1498 1498 1499 1499 1500 1501 1501 1502 1503 1504 1505 1506 1507 1508 1509 1510 1511 1512 1512 1513 1514 1514 1515 1515 1515 1516 1516 1516 1516 1516 1516 1516
1488 1489 1490 1491 1492 1493 1493 1494 1494 1495 1495 1496 1497 1497 1498 1498 1499 1500 1500 1501 1502 1503 1504 1504 1505 1506 1506 1507 1508 1508 1509 1510 1510 1511 1511 1511 1511 1511 1511 1511 1511 1511 1510 1510
1486 1487 1488 1489 1490 1490 1491 1491 1492 1493 1494 1494 1495 1496 1497 1497 1498 1498 1499 1500 1501 1502 1502 1503 1503 1503 1504 1504 1505 1505 1506 1506 1507 1507 1507 1507 1507 1506 1506 1505 1505 1504 1504 1504
1484 1484 1485 1486 1487 1488 1488 1489 1490 1491 1492 1493 1494 1494 1495 1496 1496 1497 1498 1499 1500 1500 1500 1501 1501 1501 1502 1502 1502 1502 1503 1503 1503 1503 1503 1503 1502 1502 1501 1500 1499 1499 1498 1497
1480 1481 1482 1483 1484 1485 1486 1487 1488 1489 1490 1491 1491 1492 1493 1494 1495 1496 1497 1498 1498 1498 1498 1498 1499 1499 1499 1499 1499 1499 1499 1499 1499 1499 1498 1498 1497 1497 1496 1495 1494 1493 1492 1491
1477 1477 1479 1480 1481 1482 1483 1484 1485 1486 1487 1488 1489 1490 1491 1492 1493 1494 1495 1496 1496 1496 1497 1497 1497 1497 1497 1497 1496 1496 1496 1496 1496 1495 1494 1493 1493 1492 1491 1490 1488 1487 1486 1485
1472 1473 1475 1476 1478 1479 1481 1482 1483 1484 1485 1486 1487 1488 1489 1490 1491 1492 1493 1493 1494 1494 1494 1495 1495 1494 1494 1494 1493 1493 1492 1492 1491 1490 1490 1489 1488 1487 1486 1485 1483 1482 1480 1479
1469 1470 1472 1473 1475 1477 1478 1480 1481 1482 1483 1484 1485 1486 1487 1488 1489 1489 1490 1491 1491 1491 1492 1492 1492 1491 1491 1490 1490 1489 1488 1488 1487 1486 1485 1484 1483 1482 1481 1479 1478 1476 1475 1473
1467 1468 1470 1471 1473 1474 1476 1477 1479 1480 1481 1482 1483 1484 1485 1485 1486 1487 1488 1488 1489 1489 1489 1489 1489 1488 1487 1487 1486 1486 1485 1484 1483 1482 1481 1479 1478 1477 1476 1474 1473 1471 1469 1467
1465 1466 1468 1469 1471 1472 1474 1475 1476 1478 1479 1480 1481 1482 1482 1483 1484 1485 1485 1486 1486 1487 1487 1486 1486 1485 1484 1484 1483 1482 1481 1480 1479 1477 1476 1475 1473 1472 1471 1469 1468 1466 1464 1462
1463 1465 1466 1468 1469 1471 1472 1474 1475 1476 1477 1478 1479 1480 1481 1481 1482 1483 1483 1484 1484 1484 1484 1483 1482 1482 1481 1480 1479 1478 1477 1476 1475 1473 1472 1470 1469 1467 1465 1464 1462 1460 1458 1456
1463 1464 1465 1467 1468 1469 1471 1472 1474 1475 1475 1476 1477 1478 1479 1479 1480 1480 1480 1481 1481 1481 1480 1480 1479 1479 1478 1477 1476 1474 1473 1472 1471 1469 1468 1466 1464 1462 1460 1458 1456 1454 1452 1449
1462 1463 1465 1466 1467 1468 1469 1471 1472 1473 1474 1475 1476 1477 1477 1477 1478 1478 1478 1478 1478 1478 1478 1477 1476 1475 1474 1473 1472 1471 1469 1468 1467 1465 1464 1462 1460 1458 1456 1453 1451 1448 1446 1444
1462 1463 1464 1465 1466 1467 1468 1469 1470 1471 1472 1473 1474 1475 1475 1476 1476 1476 1476 1476 1476 1475 1475 1474 1473 1472 1471 1470 1468 1467 1466 1464 1463 1461 1459 1457 1455 1453 1451 1448 1446 1443 1441 1438
1461 1462 1463 1464 1465 1466 1467 1468 1468 1469 1470 1471 1471 1472 1473 1473 1473 1473 1473 1473 1473 1472 1471 1471 1470 1468 1467 1466 1465 1463 1462 1460 1459 1457 1455 1453 1451 1448 1446 1443 1441 1438 1435 1432
1460 1461 1462 1463 1464 1465 1466 1466 1467 1468 1468 1468 1469 1469 1470 1470 1470 1470 1470 1470 1469 1469 1468 1467 1466 1465 1463 1462 1460 1459 1457 1456 1454 1452 1450 1448 1446 1443 1441 1438 1435 1433 1430 1427